Race Results for
MSC #2, Rabbit Valley Rally
Fruita, CO
(Event Information)
Individual Time Trial on 04/30/2011

Note: Ranking points are NOT upgrade points. An explanation of ranking points can be found here.


Men - Singlespeed Open

 Place Points NameCity, StateTime USAC #BibTeam
1Vince Anderson   18:02.4  513 Cloven Hoofed Sharks

Men - CAT 3 - 1-14

 Place Points NameCity, StateTime USAC #BibTeam
1540.00Christopher Blevins   Durango, CO18:43.7 255493  562 Durango Devo
2547.14Charles Greenberg   Durango, CO20:02.6 314728  642 Durango Devo
3554.29Keenan DesPlanques   Durango, CO20:47.5 294635  553 Durango DEVO
4561.43Derek Pansze   Durango, CO23:08.5 295484  707 Durango Devo
5568.57Adin Baird   Denver, CO24:18.1 302831  670 Co-Motion Sports
6William G Berger   24:49.8  668 Durango Devo
7582.86Kaden Sites   Salida, CO25:18.4 348594  710 RPM/YETI
8River Rahe   26:23.4  709 
DNSDylan Williamson   dns  660 Durango Devo

Men - CAT 2 - 15-18

 Place Points NameCity, StateTime USAC #BibTeam
1540.00Stephan Davoust   Durango, CO17:52.3 264191  611 Durango Devo
2545.56Garrett Gerchar   Boulder, CO18:11.8 344890  703 Tokyo Joes
3551.11Levi Kurlander   Durango, CO18:28.4 292498  579 Durango Devo
4556.67Kurtis Barth   Boulder, CO19:36.1 317448  587 Tokyo Joes Boulder Jr Cycle
5562.22Isaac Stackonis   Salida, CO19:42.3 316112  607 RPM: Yeti
6567.78Evan Weinman   Steamboat Springs, CO19:49.3 294829  620 SSWSC/Moots
7573.33Galen Blair   Durango, CO20:13.8 349432  593 Durango Devo
8578.89Alec Schaffer   Steamboat Springs, CO22:30.4 296377  547 SSWSC/Moots
9584.44Henry Larson   Durango, CO27:16.8 312378  700 Durango Devo
10Owen Wurtz   30:24.3  581 Durango Devo

Men - CAT 2 - 19-29

 Place Points NameCity, StateTime USAC #BibTeam
1540.00Christian Levy   Centennial, CO18:44.3 323474  610 Yeti Grassroots
2565.00Justin White   Aspen, CO20:50.1 347218  647 COMotion Sports/Yeti
3Scott Polly   23:46.2  504 One Ghost Industries

Men - CAT 2 - 30-39

 Place Points NameCity, StateTime USAC #BibTeam
1540.00Wade Washburn   Denver, CO19:01.2 197660  694 Club Treads
2Jeff Snook   19:07.4  560 
3Curry Deutsch   19:22.4  582 Fitness Tech
4558.75Kellen Tanner   Littleton, CO19:30.0 337116  698 Honey Stinger/Bicycle Outfitters
5565.00Phil Hantel   Scottsdale, AZ19:39.7 15020  649 
6571.25Jeremy MacGray   Steamboat Springs, CO20:09.0 342704  559 
7577.50Jonathan Wirth   Marine Mn21:43.5 206768  673 Club Treads
8Andrew Guzman   23:44.0  536 
9Fred Newcomer   24:45.4  554 Summit Velo
DNSDave Farrell   Pueblo, COdns 276330  549 

Men - CAT 2 - 40-99

 Place Points NameCity, StateTime USAC #BibTeam
1540.00Matthew Heydon   Steamboat Springs, CO19:50.2 350100  648 
2543.85Mark Nudelman   Thronton, CO20:45.9 320434  565 Club Treads
3547.69George Euler   Grand Junction, CO20:50.3 330974  699 Moots/LiveTrainRace.com
4551.54Field Blevins   Durango, CO21:18.7 78767  563 
5555.38roger villmow   Woodland Park, CO21:45.6 293337  704 LifeQuest
6559.23Glen Peoples   Colorado Springs, CO21:50.8 152587  526 
7563.08Kurt Blair   Durango, CO22:30.8 50133  592 Durango Wheel Club
8Kyle Johnson   22:37.5  702 
9570.77Karl Semoneit   Folsom, CA23:10.4 164382  676 Amica's Absolute Bikes
10Chad Devitt   23:21.5  602 
11578.46Michael Cook   Aspen, CO23:22.0 277690  693 The Next Level
12582.31Rich Larson   Durango, CO23:52.5 302077  701 Durango Wheel Club
13586.15Scott Swandal   Colorado Springs, CO25:11.7 244601  501 One Ghost Industries
14590.00Robert Davoust   Durango, CO25:12.0 350316  679 

Men - CAT 1 - 15-18

 Place Points NameCity, StateTime USAC #BibTeam
1540.00Howard Grotts   Durango, CO15:25.1 264839  518 Rocky Mountain Chocolate Factory/Devo Sweet Elite
2547.14Keegan Swenson   Park City, UT15:30.3 282247  629 Whole Athlete-Specialized
3554.29Noah Talley   Payson, UT15:40.6 311985  656 Revolution racing/Cannondale
4561.43Gino Pastore   Durango, CO16:41.7 230628  605 Durango Devo
5568.57Sepp Kuss   Durango16:46.4 276598  545 Durango Devo
6575.71Haakon Sigurslid   Durango, CO18:00.3 314928  537 Devo
7582.86Elliott Saslow   Durango, CO18:46.9 264114  586 Durango Devo
8590.00Joe Christiansen   Lyons, CO19:53.4 295821  502 Redstone Cyclery

Men - CAT 1 - 19-29

 Place Points NameCity, StateTime USAC #BibTeam
1540.00Tim Curry   La Crosse, WI17:34.5 248006  639 Alpine Ortho
2548.33Anthony Diaz   Durango, CO17:54.3 144576  637 Turner Bicycles
3556.67Michael Shea   Basalt, CO17:56.3 294673  546 ESC/Basalt Bike & Ski
4565.00Taylor Schmidt   Littleton, CO18:16.9 257291  603 OES/BikeSource
5573.33T. Quade Jander   Arvada, CO19:06.5 288891  540 Tokyo Joe's
6581.67Justin Hemmer   Grand Junction, CO20:00.9 311799  705 LiveTrainRace.com
7590.00Joshua Murdock   Baldwin, MD20:04.7 327552  682 Peak Cycles/Bikeparts.com

Men - CAT 1 - 30-39

 Place Points NameCity, StateTime USAC #BibTeam
1540.00Jon Brickner   Fraser, CO18:10.2 115900  600 Winter Park Winery
2556.67Ben Truitt   Lakewood, CO19:06.5 198770  528 COMotion Sports/Yeti
3573.33Ryan Schultz   Grand Junction, CO19:07.4 240082  599 Comotion Sports/Yeti Cycles
4590.00Jason Wright   Aspen, CO19:13.9 227693  590 ESC/Basalt Bike & Ski

Men - CAT 1 - 40-99

 Place Points NameCity, StateTime USAC #BibTeam
1540.00Gaige Sippy   Durango, CO16:54.0 32817  568 Iron Horse Bicycle Classic
2548.33Gary Thacker   Boulder, CO17:46.1 35266  525 Justins / Titus Mountain Bike Team
3556.67Cary Dunn   Pine, CO17:56.3 10203  689 OES-BS
4565.00Joseph Burtoni   Durango, CO18:09.1 5632  578 Durango Land and Homes
5573.33Brian Nesbitt   Bailey, CO18:43.4 311671  688 CoMotion Sports/Yeti
6581.67Hal Butler   Highlands Ranch, CO19:38.7 247110  542 FitnessTech
7590.00Ed Ford   Golden, CO21:28.6 209727  696 Summit Velocity

Men - Pro

 Place Points NameCity, StateTime USAC #BibTeam
1540.00Tad Elliott   Durango, CO15:33.7 230614  12 Rocky Mountain Chocolate Factory/Devo Sweet Elite
2544.17Brad Bingham   Steamboat Springs, CO15:34.0 121632  18 Moots Cycles
3548.33Mike West   Boulder, CO15:41.3 37786  14 Yeti Cycles
4552.50Colton Andersen   Durango, CO15:54.8 301174  10 Rocky Mountain Chocolate Factory/Devo Sweet Elite
5556.67Eric Emsky   Durango, CO15:59.3 218345  21 Durango Land and Home PB Trek Bicycles
6560.83Doug Johnson   Colorado Springs, CO16:18.2 17932  38 Bandwagon Racing
7565.00Jordan Williford   Boulder, CO16:30.5 246497  Epic Endurance Cycling
8569.17Benjamin Portilla   Oakland, CA16:30.7 208016  31 Honey Stinger/ Trek
9573.33Chad Cheeney   Durango, CO17:06.9 104313  39 Durango Devo
10577.50Nick Truitt   Breckenridge, CO17:22.8 198767  37 Yeti/Jett Pro XC Team
11581.67Campbell Levy   Centennial, CO17:31.6 116610  Yeti/Jett Pro XC Team
12585.83Mike Driver   Fruita, CO18:46.7 294288  28 Livetrainrace.com
13590.00Jason Holbrook   Boulder, CO19:50.5 211236  Yeti/Jett Pro XC Team
DNSErnie Watenpaugh   Telluride, COdns 37334  Peloton Cycles/Specialized/Honey Stinger

Women - CAT 3 - 1-14

 Place Points NameCity, StateTime USAC #BibTeam
1Camryn Sippy   27:06.4  569 Durango Devo
2Sierra Trout   28:33.3  548 Durango Devo
3Grace Pansze   32:49.3  708 Durango Devo

Women - CAT 2

 Place Points NameCity, StateTime USAC #BibTeam
1Laura Nesbitt   Bailey, CO29:09.3 316930  521 Club Treads

Women - CAT 1

 Place Points NameCity, StateTime USAC #BibTeam
1540.00Christine Irelan   Colorado Springs, CO21:45.7 293959  655 
2556.67Willa Johnson   Boulder, CO22:27.3 244213  588 Rivet Sports Garage
3573.33Lynne McDade   Lakewood, CO22:56.5 320830  500 CoMotion Sports
4590.00Anne Cheeney   Durango, CO24:48.5 272068  657 Durango Devo
DNSKathryn Judson   Arvada, COdns 47161  630 Innovative Office Solutions/International Christian Cycling Club
DNSMaura McGovern   Denver, COdns 191585  690 Rocky Mountain Racing

Women - CAT 1 - 15-18

 Place Points NameCity, StateTime USAC #BibTeam
1AliciaRose Pastore   Durango Co19:22.1 219217  523 Rocky Mountain Chocolate Factory/Devo Sweet Elite
2Sage Kitson   Salida Co26:47.4 348606  505 RPM/Yeti

Women - Pro

 Place Points NameCity, StateTime USAC #BibTeam
1540.00Teal Stetson-Lee   Reno, NV18:17.7 252205  11 Rocky Mountain Chocolate Factory/Devo Sweet Elite
2565.00Erin Huck   Boulder, CO18:42.1 194901  26 Tokyo Joes
3590.00Sarah Rawley   Dillon, CO20:52.5 234957  Yeti Beti

Report missing or incorrect license numbers

Volkswagen
SpyShimanoSierra NevadaUSACDFBonk Breaker
UCI USA Cycling is the official governing body for all disciplines of competitive cycling in the United States. The 501c3, membership-based organization aims both to achieve sustained success in international cycling competition and to grow competitive cycling in America while delivering an exceptional customer experience.
View Children's Online Privacy Protection Policy
US Olympic Committee